Location: *
(46.0770°N, 1.6444°E)
Time: 16:32:15
(UTC+00:00)

Cosmos 2251 Rocket - Pass Details

Date: 16 September 2019
Orbit: 764 x 792 km, 74.0° (Epoch: 19 October)

Event Time Altitude Azimuth Distance (km) Brightness Sun altitude
Rises 18:27:04 0° 341° (NNW) 3,300 7.2 -4.9°
Reaches altitude 10° 18:29:32 10° 345° (NNW) 2,368 6.4 -5.3°
Maximum altitude 18:34:51 58° 65° (ENE) 923 3.7 -6.2°
Drops below altitude 10° 18:40:08 10° 144° (SE) 2,352 5.6 -7.1°
Sets 18:42:33 0° 148° (SSE) 3,275 6.4 -7.5°
